This is the latest recevied weather packets stored in our database for station/object WD9U. If no packets are shown the sender has not sent any weather packets the latest 10 day(s).
| Time | Temp. | Humidity | Pressure | Rain* | Wind** | Luminosity | Snow |
|---|---|---|---|---|---|---|---|
| 1777656315 | 6.11° C | 39% | 1020.5 hPa | 0 mm | - | 834 W/m² | - |
| 1777655955 | 6.67° C | 39% | 1020.5 hPa | 0 mm | - | 828 W/m² | - |
| 1777655600 | 6.11° C | 43% | 1020.6 hPa | 0 mm | - | 824 W/m² | - |
| 1777655235 | 6.11° C | 40% | 1020.6 hPa | 0 mm | - | 819 W/m² | - |
| 1777655118 | 6.11° C | 41% | 1020.6 hPa | 0 mm | - | 816 W/m² | - |
| 1777654875 | 6.11° C | 41% | 1020.5 hPa | 0 mm | - | 814 W/m² | - |
| 1777654515 | 6.11° C | 41% | 1020.5 hPa | 0 mm | - | 806 W/m² | - |
| 1777654155 | 6.11° C | 40% | 1020.6 hPa | 0 mm | - | 800 W/m² | - |
| 1777653917 | 6.11° C | 41% | 1020.6 hPa | 0 mm | - | 796 W/m² | - |
| 1777653793 | 6.11° C | 43% | 1020.6 hPa | 0 mm | - | 794 W/m² | - |
| 1777653432 | 6.11° C | 43% | 1020.6 hPa | 0 mm | - | 785 W/m² | - |
| 1777653072 | 6.11° C | 43% | 1126.3 hPa | 0 mm | - | 779 W/m² | - |
| 1777652712 | 5.56° C | 46% | 1020.7 hPa | 0 mm | - | 770 W/m² | - |
| 1777652352 | 5.56° C | 47% | 1020.6 hPa | 0 mm | - | 764 W/m² | - |
| 1777651992 | 5.56° C | 48% | 1020.6 hPa | 0 mm | - | 753 W/m² | - |
| 1777651632 | 6.11° C | 50% | 1020.6 hPa | 0 mm | - | 744 W/m² | - |
| 1777651515 | 6.11° C | 49% | 1020.6 hPa | 0 mm | - | 742 W/m² | - |
| 1777651272 | 6.11° C | 51% | 1020.5 hPa | 0 mm | - | 735 W/m² | - |
| 1777650911 | 5.56° C | 50% | 1020.6 hPa | 0 mm | - | 722 W/m² | - |
| 1777650550 | 5° C | 55% | 1020.6 hPa | 0 mm | - | 714 W/m² | - |
| 1777650312 | 4.44° C | 53% | 1020.6 hPa | 0 mm | - | 706 W/m² | - |
| 1777650190 | 4.44° C | 52% | 1020.6 hPa | 0 mm | - | 704 W/m² | - |
| 1777649830 | 5° C | 50% | 1020.6 hPa | 0 mm | - | 690 W/m² | - |
| 1777649469 | 5° C | 50% | 1020.7 hPa | 0 mm | - | 672 W/m² | - |
| 1777649109 | 4.44° C | 54% | 1020.6 hPa | 0 mm | - | 662 W/m² | - |
* Rain latest hour (hover to see other rain measurements)
** Current wind speed in m/s (hover to see current wind gust speed)